Cloud_Cover
0 0 0 0 0 0 0 0 0 0 0 0 0 0 12 48 64 68 76 76 76 64 56 76 76 76 80 80 56 64 68 44 36 56 76 76 76 76 76 64 64 64 56 56 48 44 44 76 80 80 80 80 80 88 88 92 92 92 88 88 80 80 80 80 88 88 92 92 92
0 0 0 0 0 0 0 0 0 0 0 0 0 0 8 24 64 76 76 76 76 64 56 76 56 64 68 44 68 64 48 56 48 64 68 44 68 76 68 32 32 48 76 68 76 76 76 80 80 80 80 80 80 80 88 92 92 92 92 88 88 88 80 88 88 92 92 92 92
0 0 0 0 0 0 0 0 0 0 0 0 0 0 12 48 56 68 76 76 76 76 76 76 76 64 48 44 68 76 76 76 76 76 76 76 76 64 36 24 64 68 68 80 80 80 80 80 80 80 80 80 80 80 88 92 92 92 92 88 80 80 80 88 88 92 92 92 92
0 0 0 0 0 0 0 0 0 0 0 0 0 12 44 76 76 76 68 48 68 64 56 76 76 64 48 76 76 76 76 76 76 76 76 76 64 68 76 76 56 64 76 80 80 80 80 80 80 76 76 80 80 88 92 92 92 92 88 88 80 80 80 80 88 80 80 80 80
0 0 0 0 0 0 0 0 0 0 0 0 0 12 32 76 76 76 68 56 68 56 44 44 48 68 76 76 76 76 76 76 76 76 76 76 76 76 76 76 76 68 68 80 56 48 64 76 76 76 80 80 88 92 92 92 88 88 88 92 80 80 80 80 80 80 80 80 80
0 0 0 0 0 0 0 0 0 0 0 0 12 24 44 76 76 76 76 76 76 48 24 24 44 64 76 76 76 76 76 76 76 76 76 76 76 76 76 76 56 64 76 56 36 56 76 76 76 76 80 88 92 92 92 92 92 88 88 92 80 80 88 88 80 80 80 80 76
0 0 0 0 0 0 0 0 0 8 12 20 12 20 36 76 76 68 64 68 76 48 44 76 76 76 76 76 76 76 76 76 76 76 76 76 76 68 56 44 36 36 44 76 76 76 76 76 76 76 80 92 92 92 92 92 92 92 92 92 88 88 88 88 88 88 88 88 88
0 0 0 0 8 8 8 8 0 12 24 20 44 44 48 76 36 20 20 36 56 68 76 76 76 76 76 76 76 76 76 76 76 76 76 76 76 56 32 24 32 32 44 76 76 76 76 76 76 76 80 92 92 92 92 92 92 92 88 68 76 80 88 88 88 88 88 92 80
0 0 0 20 12 12 12 12 12 44 64 36 44 36 44 76 32 20 32 76 76 76 76 80 80 76 76 76 76 76 76 76 76 76 76 76 76 64 44 44 68 56 44 44 68 76 76 76 76 80 88 92 92 92 92 92 92 80 76 76 76 80 88 92 92 92 92 92 88
0 0 8 32 20 12 12 20 32 56 76 76 44 48 68 68 24 44 76 76 76 76 76 80 80 76 76 76 76 76 76 76 76 76 76 76 76 76 76 76 76 68 68 76 76 76 76 76 76 80 92 92 92 92 92 92 76 76 76 88 88 88 88 92 92 92 92 88 92
0 8 20 36 36 24 32 76 76 76 76 76 76 48 36 64 32 48 76 76 76 76 76 80 80 76 76 76 76 76 76 76 76 76 76 76 76 76 76 68 68 56 48 76 76 76 76 76 76 88 92 92 92 92 92 88 76 80 88 88 88 80 76 68 80 88 92 92 92
0 12 32 48 44 56 76 76 76 76 76 76 76 64 56 76 44 56 76 76 76 76 80 80 80 76 76 76 76 76 76 76 76 76 76 76 76 76 68 44 68 76 76 76 76 76 76 76 76 88 92 92 92 92 88 76 80 88 88 88 88 88 76 44 76 88 92 92 92
12 32 56 56 68 76 76 76 76 76 76 76 76 76 76 76 48 48 64 68 76 76 80 80 80 68 68 76 76 76 76 76 76 76 76 76 76 76 68 44 68 76 76 76 76 76 76 76 80 88 92 92 92 92 92 88 88 88 88 80 76 80 76 56 68 80 92 92 92
44 64 64 44 64 76 76 76 76 76 76 76 76 76 76 76 64 64 64 56 68 76 76 76 76 76 76 76 80 80 76 76 76 76 76 76 76 76 76 68 76 76 68 56 64 68 76 76 76 80 88 88 92 92 92 88 88 88 88 88 76 68 64 36 32 56 88 92 92
56 76 76 76 76 68 68 68 76 76 76 76 76 76 68 76 76 68 64 68 76 76 76 76 76 76 80 80 80 76 76 76 80 76 76 76 76 76 76 68 76 68 56 36 56 68 80 88 88 88 88 88 88 92 92 92 88 88 88 88 76 64 64 68 56 64 76 88 92
68 76 68 68 68 68 68 68 76 76 76 76 76 68 68 76 76 76 76 76 76 76 76 76 76 76 80 80 76 68 68 76 80 76 76 76 80 76 68 44 48 36 36 76 80 80 80 80 88 88 80 80 88 88 92 88 88 80 80 80 80 76 76 88 80 76 80 88 92
68 68 68 68 68 68 68 68 76 76 76 76 76 76 76 76 76 76 76 76 68 64 64 56 68 76 80 80 76 64 64 76 80 80 80 80 80 68 56 32 20 8 24 88 76 80 80 76 88 88 88 88 88 88 80 76 76 68 68 80 80 88 80 88 88 88 88 88 88
68 68 68 68 68 68 68 68 76 76 76 76 76 76 76 76 80 76 68 76 68 56 48 56 68 76 76 68 76 68 68 76 80 80 80 76 76 56 44 44 20 32 56 88 76 68 68 76 80 88 88 88 88 88 80 76 68 68 80 88 88 88 88 88 88 88 88 88 92
68 68 68 68 68 68 68 76 76 76 76 76 76 76 76 76 80 76 68 76 76 64 56 76 76 68 64 68 76 76 76 76 80 80 76 64 48 44 44 56 24 48 88 88 76 68 76 80 80 80 80 80 88 88 88 80 80 80 88 88 88 88 88 88 88 80 80 88 88
68 68 68 76 76 76 76 76 76 76 76 76 76 76 76 76 76 76 76 76 76 68 68 76 76 68 64 76 56 56 68 88 80 76 56 20 20 32 44 64 32 48 88 80 80 80 80 80 80 80 80 88 92 92 88 92 88 88 88 88 88 88 80 64 76 64 48 56 80
76 76 76 76 76 76 76 76 76 76 76 76 76 76 76 76 76 76 76 76 76 76 76 76 76 76 68 76 48 48 64 88 80 68 44 0 0 24 48 48 24 48 88 80 80 80 80 80 80 68 68 88 88 88 88 92 88 88 88 88 76 64 48 48 44 32 20 48 76
76 76 76 76 76 76 76 76 76 76 76 76 68 68 76 76 76 64 64 76 76 64 48 68 76 64 56 64 56 56 64 76 76 48 12 0 0 24 48 44 32 56 80 80 80 80 80 68 48 56 68 88 88 88 88 88 88 88 80 76 56 36 36 44 32 20 12 20 64
76 76 76 76 76 76 76 76 76 76 76 76 64 56 56 48 56 48 48 76 68 48 36 48 48 48 56 68 64 64 64 76 48 20 0 0 8 20 36 56 64 76 80 80 88 88 80 68 48 64 80 88 88 80 76 88 88 88 80 48 48 64 64 44 20 12 8 0 44
76 76 76 76 76 76 76 76 76 76 76 76 68 64 48 56 48 56 68 68 48 48 48 44 44 56 76 76 64 68 68 64 44 20 0 8 12 36 56 36 76 80 80 80 88 88 88 88 80 80 80 76 76 80 80 88 88 88 88 64 76 80 76 32 12 8 0 0 44
76 76 76 76 76 76 76 76 76 76 76 76 76 68 68 68 68 68 68 44 36 44 48 48 56 68 76 76 76 76 76 64 32 12 12 20 32 48 64 56 76 80 80 88 88 88 92 88 88 88 80 80 80 80 88 88 92 92 80 64 80 88 68 20 8 8 12 20 56
76 76 76 76 76 76 76 76 76 76 76 76 76 76 76 76 76 68 48 32 36 48 64 76 76 56 44 64 76 76 68 44 20 12 20 32 56 68 68 68 80 80 80 80 88 92 92 88 88 88 80 80 80 88 88 92 92 88 80 76 80 80 68 24 12 8 20 36 68
68 68 76 76 64 64 76 76 76 76 76 76 76 76 76 76 68 44 24 24 20 32 56 64 76 76 68 56 48 56 48 8 12 20 32 48 76 80 80 80 80 80 88 92 92 88 88 88 88 80 68 68 76 88 88 92 92 88 88 88 88 88 88 80 24 8 12 20 68
68 68 68 76 68 64 56 76 76 76 76 76 76 68 64 56 48 32 12 12 8 12 24 48 68 68 48 32 64 76 56 8 12 24 48 80 80 88 88 80 80 80 80 88 88 88 88 80 80 88 88 76 76 80 92 92 92 88 88 88 92 92 88 88 64 36 20 24 68
68 68 68 76 76 64 48 48 56 68 76 76 76 76 64 36 24 20 12 0 0 8 24 64 76 48 32 44 56 64 48 8 20 44 68 88 80 88 88 88 80 80 80 88 88 88 88 80 80 88 88 88 76 80 88 92 88 88 88 80 88 80 76 68 56 32 20 36 68
68 68 68 76 56 64 64 36 36 48 64 76 76 56 32 32 12 12 12 0 0 32 68 76 48 32 36 56 68 68 48 12 20 36 56 80 88 88 80 76 80 80 88 92 88 76 68 88 80 88 92 88 76 80 88 92 88 88 80 80 64 68 76 80 80 56 32 36 64
76 76 76 76 48 36 24 12 20 36 56 64 68 56 44 32 44 32 12 0 0 24 48 44 24 24 36 48 76 80 64 20 24 36 64 76 80 76 76 76 80 88 88 88 80 80 80 80 76 80 88 88 80 88 88 92 88 88 80 88 88 88 88 88 80 80 68 32 68
76 76 76 76 44 32 24 8 12 20 36 68 76 76 76 76 64 24 0 0 0 0 8 12 32 36 44 48 76 76 56 32 20 32 48 68 76 76 76 80 80 88 88 80 80 80 80 64 68 76 80 80 80 88 88 92 92 88 80 80 88 88 88 88 80 80 80 80 80
76 76 76 76 76 48 24 24 44 56 64 76 76 76 76 76 24 8 0 0 0 12 32 44 56 68 76 80 80 76 56 44 24 24 44 64 68 68 76 76 80 88 88 80 80 88 76 56 56 64 68 76 68 76 80 88 88 88 80 80 80 80 80 80 56 64 80 88 92
76 76 76 76 76 68 68 76 76 76 76 76 76 76 76 76 20 0 0 0 0 20 48 76 76 76 76 76 76 76 68 48 24 24 32 36 48 56 68 76 76 80 88 80 80 88 80 80 56 56 64 64 76 76 76 88 88 80 80 76 64 64 64 48 36 32 44 88 92
76 76 76 76 76 64 64 76 76 76 76 76 68 76 76 68 20 0 0 0 0 20 44 48 48 44 36 32 44 48 48 36 24 24 32 32 36 44 64 76 76 80 88 88 88 88 80 76 64 56 48 36 56 64 68 80 80 80 80 76 64 56 56 48 48 44 48 68 88
76 76 76 68 76 76 68 76 76 76 76 76 64 68 64 24 8 0 0 0 8 20 24 24 20 20 12 12 24 20 24 64 44 32 24 32 36 44 56 64 68 76 80 88 88 80 80 64 56 56 44 12 12 36 64 76 76 80 80 80 76 76 76 64 56 44 44 44 64
76 76 68 64 68 68 64 76 68 76 76 76 68 68 48 0 0 0 0 8 8 12 12 12 20 12 12 20 20 20 24 76 64 44 24 24 32 44 48 48 64 64 68 88 88 76 64 48 64 64 48 32 12 20 36 48 56 64 68 80 80 80 68 56 44 24 20 12 36
76 76 76 76 76 76 76 76 76 76 68 56 44 36 20 0 0 0 8 12 20 20 20 20 20 20 12 12 20 12 12 44 48 36 24 24 32 36 48 48 56 48 56 88 88 64 48 64 80 68 48 36 24 20 20 32 32 36 48 80 80 76 64 64 48 32 20 20 36
76 76 76 76 76 76 76 68 76 76 64 36 32 12 0 0 0 0 8 20 32 36 36 36 36 24 8 8 20 12 8 12 20 24 24 32 32 36 44 56 64 56 56 88 68 64 64 64 80 56 24 24 24 24 32 36 32 24 36 76 80 64 44 32 24 24 20 12 32
76 76 76 76 80 80 80 68 76 76 68 44 24 8 0 0 0 0 12 20 36 48 48 56 36 12 0 0 12 12 0 0 8 20 32 44 48 48 56 64 64 56 56 68 56 48 64 88 80 64 32 12 20 24 24 20 20 12 20 36 44 64 56 12 8 0 0 0 24
76 76 76 76 80 80 76 76 76 76 64 12 0 0 0 0 0 8 12 24 36 56 68 68 12 0 0 0 8 8 8 0 0 12 32 48 64 68 64 48 48 44 36 44 80 68 64 88 80 80 64 20 8 8 0 0 0 0 0 0 20 44 56 24 20 12 8 12 20